Regional Weather Roundup
Issued by NWS

Home | Current Version | Previous Version | Graphics & Text | Print | Product List | Glossary On
Versions: 1 2 3 4 5 6 7 8 9 10 11 12 13 14 15 16 17 18 19 20 21 22 23 24 25 26 27 28 29 30 31 32 33 34 35 36 37 38 39 40 41 42 43 44 45 46 47 48 49 50
826
ASUS45 KTFX 071910
RWRMT
MONTANA REGIONAL WEATHER ROUNDUP
NATIONAL WEATHER SERVICE GREAT FALLS MT
1200 PM MST WED DEC 07 2016

NOTE: "FAIR" INDICATES FEW OR NO CLOUDS BELOW 12000 FEET WITH NO
SIGNIFICANT WEATHER AND/OR OBSTRUCTIONS TO VISIBILITY.

MTZ001>007-043-072000-
WEST OF THE DIVIDE

CITY           SKY/WX    TMP DP  RH WIND       PRES   REMARKS
KALISPELL      PTSUNNY   11  -1  58 NE12      30.46S WCI  -3
MISSOULA       CLOUDY    14   1  56 E13       30.43S WCI   0
BUTTE          CLOUDY     3  -4  72 CALM      30.24F
MULLAN PASS    CLOUDY     6   3  87 SE5       30.15S
ANACONDA         N/A      7  -6  56 CALM      30.30F
DEER LODGE       N/A      7  -6  56 CALM      30.35S
EUREKA           N/A      3   0  85 CALM      30.53S VSB 1/4
HAMILTON         N/A     16   1  53 CALM      30.37S
LIBBY            N/A     16   3  57 CALM      30.47S
PLAINS           N/A     17   4  56 CALM      30.44
RONAN            N/A     14   6  70 CALM      30.40S
$$

MTZ008-052>055-072000-
SOUTHWEST MONTANA

CITY           SKY/WX    TMP DP  RH WIND       PRES   REMARKS
BOZEMAN        CLOUDY     7  -1  70 VRB3      30.36F
DILLON         SUNNY      8  -2  63 E5        30.25F
W YELLOWSTONE  SUNNY      0  -8  71 CALM      30.16F
ENNIS          PTSUNNY    3  -4  72 CALM      30.31S
THREE FORKS      N/A      7 -75   1 N5        30.33F
TWIN BRIDGES     N/A      9  -5  53 N6        30.23F WCI  -1
$$

MTZ009-010-012-014-046-048-049-054-072000-
EAST SLOPES AND CENTRAL MONTANA

CITY           SKY/WX    TMP DP  RH WIND       PRES   REMARKS
CUT BANK       SUNNY     -2 -10  69 N12       30.45F WCI -20
GREAT FALLS    CLOUDY     1  -7  68 W8        30.48S WCI -13
MALMSTROM AFB  MOSUNNY    2  -7  67 W6        30.51S WCI  -9
HELENA         CLOUDY     5  -7  57 N5        30.44F
AUGUSTA        CLOUDY    -2  -8  76 SW1       30.39F
BOWMANS CRNR   CLOUDY    -3  -8  78 S3        30.39S
CHOTEAU          N/A      1  -6  71 MISG      30.47S
CONRAD           N/A     -1  -8  72 W6        30.45S WCI -13
FAIRFIELD      FLURRIES   0  -8  68 N1        30.45F
POWER          PTSUNNY   -1  -8  74 NW9       30.46S WCI -17
RAYNESFORD       N/A     -3 -10  72 W8        30.44F WCI -18
ULM            CLOUDY    -1  -7  74 W3        30.49F
$$

MTZ011-013-016-021-045-047-050-051-072000-
NORTH CENTRAL MONTANA

CITY           SKY/WX    TMP DP  RH WIND       PRES   REMARKS
HAVRE          CLOUDY     4  -5  66 W10       30.57S WCI -11
LEWISTOWN      CLOUDY    -2  -8  76 W12       30.40F WCI -20
N BAR RANCH    CLOUDY     3  -8  60 NW12      30.35S WCI -13
CHINOOK          N/A      3  -8  60 W17G24    30.58S WCI -17
GEYSER           N/A     -1  -8  70 W22       30.40F WCI -24
GRASS RANGE    PTSUNNY    1  -6  71 W22       30.38S WCI -22
JUDITH GAP       N/A     -4  -9  79 N21       30.32S WCI -28
ROY            PTSUNNY    2  -4  76 MISG      30.42S
STANFORD         N/A     -3  -9  75 NW10      30.38S WCI -20
WINIFRED       PTSUNNY    0  -5  80 MISG      30.44F
$$

MTZ017>020-022>027-061-062-072000-
NORTHEAST MONTANA

CITY           SKY/WX    TMP DP  RH WIND       PRES   REMARKS
GLASGOW        MOSUNNY    3  -7  63 NW23G31   30.49S WCI -19
JORDAN           N/A      6  -5  60 NW18G29   30.48S WCI -13
WOLF POINT     SUNNY      4  -7  60 W17       30.51S WCI -16
PLENTYWOOD       N/A     -2  -9  71 NW25G31   30.38R WCI -27
POPLAR           N/A      1  -9  60 W20       30.48S WCI -20
SCOBEY           N/A     -1 -13  56 NW20      30.37  WCI -23
$$

MTZ028>42-056>058-072000-
SOUTHCENTRAL AND SOUTHEAST MONTANA

CITY           SKY/WX    TMP DP  RH WIND       PRES   REMARKS
BAKER          MOSUNNY    3  -5  69 NW23G33   30.37S WCI -19
BILLINGS       MOSUNNY   10  -3  55 CALM      30.41F
LIVINGSTON     MOSUNNY    6  -5  60 NW14      30.31S WCI -11
MILES CITY     CLOUDY     8  -6  52 NW14G23   30.48F WCI  -8
BIG TIMBER     SUNNY      9  -2  61 CALM      30.35S
FORSYTH          N/A      7  -2  66 NW15G21   30.48F WCI -11
LAUREL           N/A      9  -7  48 SW3       30.35S
ROUNDUP          N/A      8  -8  48 W2        30.30F
$$

REGIONAL REPORTS...DAKOTAS

CITY           SKY/WX    TMP DP  RH WIND       PRES   REMARKS
WILLISTON      CLOUDY     0  -9  65 W15G25    30.43R WCI -19
MINOT          LGT SNOW   6   1  80 W37G45    30.22R VSB 3/4 WCI -20
DICKINSON      BLWGSNOW   0  -7  72 NW33G40   30.28S VSB 1   WCI -27
BEACH          LGT SNOW   1  -4  78 NW26G32   30.39S WCI -23
CROSBY         LGT SNOW   1  -2  85 NW30G36   30.37R WCI -24
TIOGA          LGT SNOW   0  -4  85 W31G38    30.32S WCI -27
WATFORD CITY     N/A      0  -8  71 NW20G26   30.40S WCI -22
BISMARCK       CLOUDY     5  -1  76 NW26G37   30.28S WCI -18
GRAND FORKS    LGT SNOW  19  13  77 NW24G32   29.97R BLWGSNOWWCI   2
FARGO          LGT SNOW  15   8  73 W28G36    30.04S WCI  -5
BUFFALO SD       N/A      7  -3  64 NW32      30.25R WCI -17
RAPID CITY     CLOUDY    14  -4  44 NW20G31   30.33S WCI  -3
$$

REGIONAL REPORTS...WYOMING/IDAHO/WASHINGTON

CITY           SKY/WX    TMP DP  RH WIND       PRES   REMARKS
GILLETTE       CLOUDY     1  -6  72 NW14      30.32S WCI -17
SHERIDAN       SUNNY      5  -5  63 W10       30.37F WCI -10
BUFFALO WY     MOSUNNY    3  -7  63 NW6       30.28F WCI  -8
CODY           MOSUNNY   17   0  47 CALM      30.29F
YELLOWSTONE LA   N/A      3  -1  83 CALM      30.06R
IDAHO FALLS    MOSUNNY   18   3  52 NE7       30.29S WCI   9
SALMON         CLOUDY    16  10  79 CALM      30.30S
BOISE          SUNNY     23  13  65 SE8       30.38R WCI  14
SPOKANE        PTSUNNY   24  13  62 E9        30.40S WCI  14
$$

REGIONAL REPORTS...ALBERTA

CITY           SKY/WX    TMP DP  RH WIND       PRES   REMARKS
EDMONTON       MOSUNNY   -4 -15  59 NW9       30.64R WCI -20
CALGARY        MOSUNNY   -2 -13  60 N16       30.48S WCI -23
LETHBRIDGE     SUNNY     -2 -11  65 W9        30.56S WCI -18
MEDICINE HAT   MOSUNNY    0  -9  65 W12       30.60S WCI -18
WATERTON GATE    N/A      0 -11  60 N2          N/A
MILK RIVER       N/A     -2  -9  71 NW15        N/A  WCI -22
ONEFOUR          N/A     -4  -9  77 NW17        N/A  WCI -26
$$

REGIONAL REPORTS...SASKATCHEWAN

CITY           SKY/WX    TMP DP  RH WIND       PRES   REMARKS
SWIFT CURRENT  MOSUNNY   -6  -9  84 NW22      30.42S WCI -31
REGINA         CLOUDY     3  -4  72 NW23      30.39S BLWGSNOWWCI -19
SASKATOON      MOSUNNY    5  -4  66 NW16      30.50R WCI -14
CYPRESS HILLS    N/A    -11 -17  77 NW12G21     N/A  WCI -31
VAL MARIE        N/A     -2 -11  65 NW17        N/A  WCI -24
ASSINIBOIA       N/A     -2  -9  71 NW12G17     N/A  WCI -20
$$




USA.gov is the U.S. government's official web portal to all federal, state and local government web resources and services.